UAL1582 KATL-KLAX

Flight info

Callsign UAL1582
Flight time N/A
Altitude 32000
Route KATL/26L NASSA2 YAALL J14 PNH DCT ACH DCT ABQ J78 DRK DCT GABBL HLYWD1 KLAX/SEAVU I24R
Aircraft B38M/M-SDE1FGHILORVWXY/HB1

Departure

Time 2026-05-07 22:57
Airport Hartsfield Jackson Atlanta International Airport (KATL)

Arrival

Time N/A
Airport Los Angeles International Airport (KLAX)
Time Latitude Longitude Altitude Speed Heading
2026-05-07 22:36 33.64226 -84.43317 1009 ft 0 kts 89°
2026-05-07 22:45 33.64226 -84.43342 1009 ft 4 kts 85°
2026-05-07 22:45 33.64219 -84.43372 1009 ft 4 kts 57°
2026-05-07 22:45 33.64201 -84.43391 1009 ft 4 kts 12°
2026-05-07 22:46 33.64189 -84.43393 1009 ft 1 kts
2026-05-07 22:46 33.64188 -84.43393 1009 ft 0 kts
2026-05-07 22:48 33.64199 -84.43393 1009 ft 5 kts 360°
2026-05-07 22:48 33.64267 -84.43393 1009 ft 13 kts 359°
2026-05-07 22:49 33.64366 -84.43394 1009 ft 15 kts 359°
2026-05-07 22:49 33.64455 -84.43350 1009 ft 15 kts 68°
2026-05-07 22:49 33.64461 -84.43224 1009 ft 16 kts 91°
2026-05-07 22:49 33.64460 -84.43137 1009 ft 16 kts 90°
2026-05-07 22:50 33.64459 -84.42950 1009 ft 17 kts 90°
2026-05-07 22:50 33.64459 -84.42852 1009 ft 18 kts 90°
2026-05-07 22:50 33.64529 -84.42741 1009 ft 18 kts 51°
2026-05-07 22:50 33.64542 -84.42590 1008 ft 20 kts 90°
2026-05-07 22:51 33.64540 -84.42387 1008 ft 29 kts 89°
2026-05-07 22:51 33.64542 -84.42168 1008 ft 25 kts 91°
2026-05-07 22:51 33.64542 -84.41954 1009 ft 26 kts 89°
2026-05-07 22:51 33.64543 -84.41768 1009 ft 20 kts 89°
2026-05-07 22:52 33.64544 -84.41595 1009 ft 21 kts 91°
2026-05-07 22:52 33.64544 -84.41416 1009 ft 22 kts 89°
2026-05-07 22:52 33.64544 -84.41233 1009 ft 22 kts 91°
2026-05-07 22:52 33.64543 -84.41043 1009 ft 23 kts 89°
2026-05-07 22:53 33.64542 -84.40863 1008 ft 15 kts 89°
2026-05-07 22:53 33.64569 -84.40755 1008 ft 12 kts 80°
2026-05-07 22:53 33.64570 -84.40650 1008 ft 13 kts 91°
2026-05-07 22:53 33.64583 -84.40585 1008 ft 0 kts 45°
2026-05-07 22:54 33.64585 -84.40583 1008 ft 2 kts 44°
2026-05-07 22:54 33.64636 -84.40568 1007 ft 12 kts 359°
2026-05-07 22:54 33.64679 -84.40579 1006 ft 1 kts 279°
2026-05-07 22:55 33.64679 -84.40582 1006 ft 0 kts 270°
2026-05-07 22:56 33.64680 -84.40706 1006 ft 47 kts 270°
2026-05-07 22:56 33.64683 -84.41405 1012 ft 119 kts 270°
2026-05-07 22:57 33.64722 -84.42646 1072 ft 172 kts 277°
2026-05-07 22:57 33.64803 -84.44191 1519 ft 195 kts 276°
2026-05-07 22:57 33.64990 -84.45831 2338 ft 200 kts 279°
2026-05-07 22:57 33.65397 -84.47507 2921 ft 220 kts 285°
2026-05-07 22:58 33.65936 -84.49278 3618 ft 230 kts 286°
2026-05-07 22:58 33.66449 -84.51091 4521 ft 228 kts 282°
2026-05-07 22:58 33.66839 -84.52933 5430 ft 226 kts 279°
2026-05-07 22:58 33.67114 -84.54796 6082 ft 232 kts 270°
2026-05-07 22:59 33.67218 -84.56803 6345 ft 250 kts 272°
2026-05-07 22:59 33.67405 -84.58916 6794 ft 256 kts 274°
2026-05-07 22:59 33.67642 -84.61032 7378 ft 257 kts 276°
2026-05-07 22:59 33.67929 -84.63163 7933 ft 259 kts 277°
2026-05-07 23:00 33.68247 -84.65289 8518 ft 259 kts 277°
2026-05-07 23:00 33.68582 -84.67419 9061 ft 260 kts 277°
2026-05-07 23:00 33.68928 -84.69556 9603 ft 261 kts 277°
2026-05-07 23:00 33.69282 -84.71705 10097 ft 263 kts 278°
2026-05-07 23:01 33.69650 -84.73913 10224 ft 278 kts 278°
2026-05-07 23:01 33.69987 -84.76263 10242 ft 292 kts 271°
2026-05-07 23:01 33.69995 -84.78751 10260 ft 304 kts 268°
2026-05-07 23:01 33.69986 -84.81328 10259 ft 315 kts 268°
2026-05-07 23:02 33.69980 -84.83994 10394 ft 319 kts 268°
2026-05-07 23:02 33.69974 -84.86652 10638 ft 319 kts 268°
2026-05-07 23:02 33.69970 -84.89321 10873 ft 320 kts 268°
2026-05-07 23:02 33.69963 -84.91992 11090 ft 320 kts 268°
2026-05-07 23:03 33.69957 -84.94667 11270 ft 322 kts 268°
2026-05-07 23:03 33.69950 -84.97358 11468 ft 322 kts 268°
2026-05-07 23:03 33.69943 -85.00048 11666 ft 323 kts 268°
2026-05-07 23:03 33.69935 -85.02746 11851 ft 323 kts 268°
2026-05-07 23:04 33.69927 -85.05445 12017 ft 324 kts 268°
2026-05-07 23:04 33.69918 -85.08152 12165 ft 325 kts 268°
2026-05-07 23:04 33.69908 -85.10881 12734 ft 327 kts 268°
2026-05-07 23:04 33.69898 -85.13613 13536 ft 328 kts 268°
2026-05-07 23:05 33.69887 -85.16329 14149 ft 332 kts 268°
2026-05-07 23:05 33.69875 -85.19142 14802 ft 333 kts 268°
2026-05-07 23:05 33.69862 -85.21928 15435 ft 335 kts 268°
2026-05-07 23:05 33.69833 -85.24694 16059 ft 336 kts 268°
2026-05-07 23:06 33.69803 -85.27543 16657 ft 338 kts 268°
2026-05-07 23:06 33.69772 -85.30370 17243 ft 340 kts 268°
2026-05-07 23:06 33.69741 -85.33216 17825 ft 341 kts 268°
2026-05-07 23:06 33.69709 -85.36072 18383 ft 343 kts 268°
2026-05-07 23:07 33.69676 -85.38942 18848 ft 345 kts 268°
2026-05-07 23:07 33.69642 -85.41832 19316 ft 347 kts 268°
2026-05-07 23:07 33.69608 -85.44736 19771 ft 349 kts 268°
2026-05-07 23:07 33.69573 -85.47654 20256 ft 350 kts 268°
2026-05-07 23:08 33.69537 -85.50585 20719 ft 352 kts 268°
2026-05-07 23:08 33.69500 -85.53528 21153 ft 354 kts 268°
2026-05-07 23:08 33.69462 -85.56493 21617 ft 356 kts 268°
2026-05-07 23:08 33.69423 -85.59463 22079 ft 357 kts 268°
2026-05-07 23:09 33.69384 -85.62451 22513 ft 359 kts 268°
2026-05-07 23:09 33.69343 -85.65459 22948 ft 361 kts 268°
2026-05-07 23:09 33.69302 -85.68480 23371 ft 363 kts 268°
2026-05-07 23:09 33.69259 -85.71519 23758 ft 365 kts 268°
2026-05-07 23:10 33.69216 -85.74577 24138 ft 367 kts 268°
2026-05-07 23:10 33.69171 -85.77648 24471 ft 369 kts 268°
2026-05-07 23:10 33.69126 -85.80737 24808 ft 371 kts 268°
2026-05-07 23:10 33.69079 -85.83839 25154 ft 373 kts 268°
2026-05-07 23:11 33.69032 -85.86956 25493 ft 375 kts 268°
2026-05-07 23:11 33.68983 -85.90092 25805 ft 377 kts 268°
2026-05-07 23:11 33.68934 -85.93243 26129 ft 378 kts 268°
2026-05-07 23:11 33.68883 -85.96405 26459 ft 380 kts 268°
2026-05-07 23:12 33.68832 -85.99586 26765 ft 382 kts 268°
2026-05-07 23:12 33.68780 -86.02783 27056 ft 384 kts 268°
2026-05-07 23:12 33.68944 -86.05990 27356 ft 387 kts 275°
2026-05-07 23:12 33.69243 -86.09201 27670 ft 388 kts 274°
2026-05-07 23:13 33.69517 -86.12434 27949 ft 390 kts 274°
2026-05-07 23:13 33.69779 -86.15684 28236 ft 392 kts 274°
2026-05-07 23:13 33.70035 -86.18944 28510 ft 394 kts 273°
2026-05-07 23:13 33.70290 -86.22227 28796 ft 395 kts 274°
2026-05-07 23:14 33.70543 -86.25520 29083 ft 397 kts 273°
2026-05-07 23:14 33.70797 -86.28828 29378 ft 398 kts 273°
2026-05-07 23:14 33.71050 -86.32130 29746 ft 397 kts 273°
2026-05-07 23:14 33.71300 -86.35430 30155 ft 395 kts 273°
2026-05-07 23:15 33.71549 -86.38708 30505 ft 394 kts 273°
2026-05-07 23:15 33.71795 -86.41972 30866 ft 391 kts 273°
2026-05-07 23:15 33.72040 -86.45217 31245 ft 389 kts 273°
2026-05-07 23:15 33.72282 -86.48446 31630 ft 387 kts 273°
2026-05-07 23:16 33.72522 -86.51657 31958 ft 386 kts 272°
2026-05-07 23:16 33.72998 -86.58043 32034 ft 381 kts 272°
2026-05-07 23:17 33.73465 -86.64378 32032 ft 380 kts 272°
2026-05-07 23:17 33.73927 -86.70668 32035 ft 380 kts 272°
2026-05-07 23:18 33.74390 -86.77027 32036 ft 379 kts 272°
2026-05-07 23:18 33.74843 -86.83293 32035 ft 379 kts 272°
2026-05-07 23:19 33.75295 -86.89600 32029 ft 378 kts 272°
2026-05-07 23:19 33.75744 -86.95888 32024 ft 378 kts 272°
2026-05-07 23:20 33.76189 -87.02181 32010 ft 377 kts 272°
2026-05-07 23:20 33.76630 -87.08457 32020 ft 377 kts 272°
2026-05-07 23:21 33.77070 -87.14770 32026 ft 376 kts 272°
2026-05-07 23:21 33.77504 -87.21033 32039 ft 376 kts 271°
2026-05-07 23:22 33.77934 -87.27292 32047 ft 376 kts 271°
2026-05-07 23:22 33.78358 -87.33511 32051 ft 376 kts 271°
2026-05-07 23:23 33.78782 -87.39764 32043 ft 375 kts 271°
2026-05-07 23:23 33.79203 -87.46003 32034 ft 374 kts 271°
2026-05-07 23:24 33.80208 -87.52171 32041 ft 379 kts 279°
2026-05-07 23:24 33.81482 -87.58328 32036 ft 379 kts 279°
2026-05-07 23:25 33.82760 -87.64477 32008 ft 379 kts 279°
2026-05-07 23:25 33.84036 -87.70623 32000 ft 379 kts 279°
2026-05-07 23:26 33.85310 -87.76778 31997 ft 379 kts 279°
2026-05-07 23:26 33.86579 -87.82924 32014 ft 379 kts 278°
2026-05-07 23:27 33.88476 -87.92143 32007 ft 378 kts 278°
2026-05-07 23:27 33.89735 -87.98282 32010 ft 377 kts 278°
2026-05-07 23:28 33.90989 -88.04413 32006 ft 377 kts 278°
2026-05-07 23:28 33.92240 -88.10547 32009 ft 377 kts 278°
2026-05-07 23:29 33.93488 -88.16685 32015 ft 377 kts 278°
2026-05-07 23:29 33.94731 -88.22812 32015 ft 377 kts 278°
2026-05-07 23:30 33.95761 -88.27904 32015 ft 376 kts 278°